Home   Weather   Tsu   Past weeks

Flag for Japan Past Weather in Tsu, Japan — Yesterday and Last 2 Weeks

Now
74 °F

Mild.


Feels Like: 74 °F
Forecast: 69 / 80 °F
Wind: 5 mph from North

Location: Tsu

Current Time: Sep 26, 2016 at 12:47:46 AM

Latest Report: Sep 26, 2016 at 12:00 AM


Visibility: N/A

Pressure: 30.09 "Hg

Humidity: 78%

Dew Point: 66 °F

Location of TsuLocation

Past Weather in Tsu — Graph

°F

Tsu Temperature Yesterday

Maximum temperature yesterday: 79 °F (at 1:00 PM)
Minimum temperature yesterday: 69 °F (at 6:00 AM)
Average temperature yesterday: 74 °F

High & Low Weather Summary for the Past Weeks

 TemperatureHumidityPressure
High84 °F (Sep 14, 11:00 AM)92% (Sep 23, 3:00 AM)30.11 "Hg (Sep 23, 3:00 AM)
Low68 °F (Sep 24, 6:00 AM)51% (Sep 15, 2:00 PM)29.23 "Hg (Sep 20, 4:00 PM)
Average75 °F78%29.95 "Hg
* Reported Sep 10 11:00 PM — Sep 25 11:00 PM, Tsu, Weather by CustomWeather, © 2016

Note: Actual official high and low records may vary slightly from our data, if they occured in-between our weather recording intervals... More about our weather records

Advertising

Tsu Weather History for the Previous 24 Hours

Scroll right to see more
 ConditionsComfort  
Time TempWeatherWind HumidityBarometerVisibility
11:00 PM
Sun, Sep 25
74 °FMild.2 mph78%30.09 "HgN/A
10:00 PM74 °FMild.3 mph77%30.08 "HgN/A
9:00 PM74 °FPassing clouds.3 mph76%30.09 "Hg19 mi
8:00 PM76 °FMild.1 mph74%30.08 "HgN/A
7:00 PM77 °FWarm.2 mph71%30.07 "HgN/A
6:00 PM77 °FWarm.1 mph69%30.05 "HgN/A
5:00 PM78 °FWarm.3 mph70%30.04 "HgN/A
4:00 PM79 °FWarm.5 mph58%30.03 "HgN/A
3:00 PM78 °FOvercast.5 mph65%30.04 "Hg19 mi
2:00 PM79 °FWarm.6 mph63%30.04 "HgN/A
1:00 PM79 °FWarm.3 mph58%30.06 "HgN/A
12:00 PM78 °FWarm.6 mph62%30.09 "HgN/A
11:00 AM78 °FWarm.5 mph63%30.10 "HgN/A
10:00 AM77 °FWarm.3 mph68%30.11 "HgN/A
9:00 AM75 °FOvercast.2 mph72%30.11 "Hg9 mi
8:00 AM71 °FMild.5 mph82%30.10 "HgN/A
7:00 AM70 °FMild.5 mph88%30.09 "HgN/A
6:00 AM69 °FMild.2 mph89%30.08 "HgN/A
5:00 AM69 °FMild.3 mph89%30.08 "HgN/A
4:00 AM69 °FMild.3 mph88%30.06 "HgN/A
3:00 AM69 °FMild.2 mph88%30.06 "HgN/A
2:00 AM69 °FMild.2 mph90%30.07 "HgN/A
1:00 AM69 °FMild.3 mph90%30.08 "HgN/A
12:00 AM69 °FMild.2 mph90%30.09 "HgN/A
Weather by CustomWeather, © 2016

See weather overviewHow to use our weather pages